| time (UTC) | temp F | wind direction | speed knots | gust knots | rain 1hr in | rain 24hr in | rain mn in | humidity % | barometer mb |
| 20260906083042 | 70 | 0 | 0.0 | 0.0 | 0.00 | 0.00 | 0.00 | 95 | 1012.8 |
| 20260906081546 | 70 | 0 | 0.0 | 0.0 | 0.00 | 0.00 | 0.00 | 95 | 1012.7 |
| 20260906080044 | 70 | 0 | 0.0 | 2.6 | 0.00 | 0.00 | 0.00 | 95 | 1012.6 |
| 20260906074544 | 70 | 269 | 0.9 | 2.6 | 0.00 | 0.00 | 0.00 | 95 | 1012.5 |
| 20260906073043 | 70 | 269 | 0.9 | 1.7 | 0.00 | 0.00 | 0.00 | 95 | 1012.6 |
| 20260906071557 | 70 | 269 | 0.0 | 2.6 | 0.00 | 0.00 | 0.00 | 95 | 1012.6 |
| 20260906070042 | 71 | 0 | 0.0 | 0.9 | 0.00 | 0.00 | 0.00 | 95 | 1012.7 |
| 20260906064545 | 71 | 0 | 0.0 | 1.7 | 0.00 | 0.00 | 0.00 | 94 | 1012.5 |
| 20260906063053 | 71 | 0 | 0.0 | 1.7 | 0.00 | 0.00 | 0.00 | 95 | 1012.8 |
| 20260906061543 | 71 | 269 | 0.0 | 1.7 | 0.00 | 0.00 | 0.00 | 95 | 1013.1 |
| 20260906060042 | 71 | 0 | 0.0 | 2.6 | 0.00 | 0.00 | 0.00 | 94 | 1013.1 |
| 20260906054546 | 71 | 269 | 0.0 | 1.7 | 0.00 | 0.00 | 0.00 | 94 | 1013.3 |
| 20260906053050 | 71 | 269 | 1.7 | 3.5 | 0.00 | 0.00 | 0.00 | 94 | 1013.5 |
| 20260906051543 | 71 | 269 | 0.9 | 1.7 | 0.00 | 0.00 | 0.00 | 94 | 1013.5 |
| 20260906050044 | 72 | 269 | 0.0 | 1.7 | 0.00 | 0.00 | 0.00 | 93 | 1013.7 |
| 20260906044546 | 72 | 269 | 0.9 | 2.6 | 0.00 | 0.00 | 0.00 | 93 | 1013.7 |
| 20260906043043 | 72 | 0 | 0.0 | 1.7 | 0.00 | 0.00 | 0.00 | 93 | 1013.7 |
| 20260906041542 | 72 | 0 | 0.0 | 1.7 | 0.00 | 0.00 | 0.00 | 93 | 1013.8 |
| 20260906040047 | 72 | 0 | 0.0 | 3.5 | 0.00 | 0.00 | 0.00 | 92 | 1013.8 |
| 20260906034547 | 73 | 267 | 0.0 | 1.7 | 0.00 | 0.00 | 0.00 | 92 | 1013.8 |
| 20260906033044 | 73 | 267 | 0.9 | 2.6 | 0.00 | 0.00 | 0.00 | 92 | 1013.8 |
| 20260906031550 | 73 | 267 | 0.0 | 2.6 | 0.00 | 0.00 | 0.00 | 91 | 1013.7 |
| 20260906030046 | 73 | 272 | 0.9 | 3.5 | 0.00 | 0.00 | 0.00 | 90 | 1013.8 |
| 20260906024558 | 74 | 0 | 0.9 | 2.6 | 0.00 | 0.00 | 0.00 | 90 | 1013.5 |
| 20260906023043 | 74 | 0 | 0.0 | 1.7 | 0.00 | 0.00 | 0.00 | 89 | 1013.4 |
| 20260906021552 | 74 | 284 | 0.9 | 2.6 | 0.00 | 0.00 | 0.00 | 89 | 1013.5 |
| 20260906020050 | 75 | 174 | 0.9 | 2.6 | 0.00 | 0.00 | 0.00 | 88 | 1013.6 |
| 20260906014552 | 75 | 173 | 1.7 | 4.3 | 0.00 | 0.00 | 0.00 | 87 | 1013.6 |
| 20260906013045 | 76 | 208 | 0.0 | 1.7 | 0.00 | 0.00 | 0.00 | 86 | 1013.5 |
| 20260906011545 | 76 | 210 | 0.9 | 2.6 | 0.00 | 0.00 | 0.00 | 84 | 1013.3 |
| 20260906010043 | 77 | 0 | 0.0 | 2.6 | 0.00 | 0.00 | 0.00 | 83 | 1013.1 |
| 20260906004549 | 78 | 225 | 0.9 | 2.6 | 0.00 | 0.00 | 0.00 | 82 | 1013.1 |
| 20260906003102 | 79 | 0 | 0.0 | 1.7 | 0.00 | 0.00 | 0.00 | 80 | 1012.8 |
| 20260906001545 | 79 | 281 | 0.9 | 2.6 | 0.00 | 0.00 | 0.00 | 80 | 1012.7 |
| 20260906000043 | 80 | 281 | 1.7 | 3.5 | 0.00 | 0.00 | 0.00 | 77 | 1012.7 |
| 20260905234541 | 81 | 288 | 1.7 | 2.6 | 0.00 | 0.00 | 0.00 | 76 | 1012.4 |
| 20260905233043 | 82 | 288 | 1.7 | 2.6 | 0.00 | 0.00 | 0.00 | 76 | 1012.6 |
| 20260905231544 | 82 | 288 | 0.9 | 3.5 | 0.00 | 0.00 | 0.00 | 74 | 1012.7 |
| 20260905230049 | 82 | 271 | 2.6 | 5.2 | 0.00 | 0.00 | 0.00 | 72 | 1012.7 |
| 20260905224542 | 82 | 317 | 0.0 | 2.6 | 0.00 | 0.00 | 0.00 | 71 | 1012.5 |
| 20260905223041 | 82 | 317 | 0.9 | 2.6 | 0.00 | 0.00 | 0.00 | 72 | 1012.4 |
| 20260905221545 | 82 | 311 | 2.6 | 5.2 | 0.00 | 0.00 | 0.00 | 73 | 1012.5 |
| 20260905220045 | 82 | 305 | 2.6 | 4.3 | 0.00 | 0.00 | 0.00 | 73 | 1012.6 |
| 20260905214546 | 82 | 65 | 0.9 | 6.1 | 0.00 | 0.00 | 0.00 | 73 | 1012.7 |
| 20260905213045 | 83 | 0 | 0.0 | 2.6 | 0.00 | 0.00 | 0.00 | 71 | 1013.2 |
| 20260905211607 | 83 | 138 | 1.7 | 7.0 | 0.00 | 0.00 | 0.00 | 70 | 1013.2 |
| 20260905210042 | 83 | 0 | 0.0 | 3.5 | 0.00 | 0.00 | 0.00 | 72 | 1013.4 |
| 20260905204556 | 83 | 142 | 0.9 | 4.3 | 0.00 | 0.00 | 0.00 | 70 | 1012.8 |
| 20260905203053 | 83 | 88 | 0.9 | 2.6 | 0.00 | 0.00 | 0.00 | 66 | 1013.0 |
| 20260905201545 | 83 | 161 | 0.0 | 7.0 | 0.00 | 0.00 | 0.00 | 65 | 1013.6 |
| 20260905200051 | 84 | 308 | 2.6 | 10.4 | 0.00 | 0.00 | 0.00 | 64 | 1013.6 |
| 20260905194550 | 84 | 30 | 3.5 | 8.7 | 0.00 | 0.00 | 0.00 | 65 | 1013.9 |
| 20260905193058 | 86 | 360 | 7.8 | 13.9 | 0.00 | 0.00 | 0.00 | 62 | 1013.6 |
| 20260905191551 | 89 | 340 | 7.0 | 17.4 | 0.00 | 0.00 | 0.00 | 55 | 1013.4 |
| 20260905190046 | 95 | 90 | 1.7 | 5.2 | 0.00 | 0.00 | 0.00 | 48 | 1013.1 |
| 20260905184550 | 96 | 86 | 1.7 | 7.0 | 0.00 | 0.00 | 0.00 | 47 | 1012.3 |
| 20260905183045 | 98 | 108 | 2.6 | 7.0 | 0.00 | 0.00 | 0.00 | 47 | 1012.5 |
| 20260905181544 | 98 | 97 | 2.6 | 7.8 | 0.00 | 0.00 | 0.00 | 48 | 1012.6 |
| 20260905180048 | 97 | 304 | 1.7 | 8.7 | 0.00 | 0.00 | 0.00 | 46 | 1013.2 |
| 20260905174544 | 96 | 85 | 1.7 | 7.0 | 0.00 | 0.00 | 0.00 | 50 | 1013.3 |
| 20260905173041 | 96 | 204 | 1.7 | 8.7 | 0.00 | 0.00 | 0.00 | 51 | 1013.5 |
| 20260905171546 | 96 | 140 | 4.3 | 9.6 | 0.00 | 0.00 | 0.00 | 51 | 1013.5 |
| 20260905170047 | 96 | 128 | 1.7 | 6.1 | 0.00 | 0.00 | 0.00 | 53 | 1013.5 |
| 20260905164543 | 96 | 311 | 2.6 | 7.8 | 0.00 | 0.00 | 0.00 | 53 | 1013.8 |
| 20260905163047 | 95 | 246 | 0.9 | 2.6 | 0.00 | 0.00 | 0.00 | 55 | 1014.2 |
| 20260905161544 | 93 | 117 | 1.7 | 7.0 | 0.00 | 0.00 | 0.00 | 57 | 1014.4 |
| 20260905160049 | 94 | 251 | 0.9 | 3.5 | 0.00 | 0.00 | 0.00 | 57 | 1014.4 |
| 20260905154554 | 92 | 5 | 1.7 | 6.1 | 0.00 | 0.00 | 0.00 | 61 | 1014.6 |
| 20260905153044 | 91 | 267 | 1.7 | 4.3 | 0.00 | 0.00 | 0.00 | 62 | 1014.9 |
| 20260905151545 | 91 | 317 | 1.7 | 4.3 | 0.00 | 0.00 | 0.00 | 64 | 1015.0 |
| 20260905150049 | 90 | 278 | 1.7 | 6.1 | 0.00 | 0.00 | 0.00 | 65 | 1014.9 |
| 20260905144549 | 88 | 319 | 2.6 | 5.2 | 0.00 | 0.00 | 0.00 | 69 | 1014.9 |
| 20260905143049 | 87 | 260 | 0.9 | 3.5 | 0.00 | 0.00 | 0.00 | 72 | 1015.0 |
| 20260905141546 | 85 | 292 | 0.9 | 3.5 | 0.00 | 0.00 | 0.00 | 75 | 1015.2 |
| 20260905140048 | 84 | 0 | 0.0 | 3.5 | 0.00 | 0.00 | 0.00 | 77 | 1015.4 |
| 20260905134543 | 82 | 315 | 1.7 | 7.0 | 0.00 | 0.00 | 0.00 | 81 | 1015.7 |
| 20260905133049 | 81 | 311 | 1.7 | 6.1 | 0.00 | 0.00 | 0.00 | 83 | 1015.7 |
| 20260905131551 | 80 | 315 | 1.7 | 5.2 | 0.00 | 0.00 | 0.00 | 85 | 1015.6 |
| 20260905130042 | 79 | 265 | 1.7 | 5.2 | 0.00 | 0.00 | 0.00 | 90 | 1015.5 |
| 20260905124543 | 75 | 0 | 0.0 | 1.7 | 0.00 | 0.00 | 0.00 | 97 | 1015.6 |
| 20260905123042 | 74 | 0 | 0.0 | 1.7 | 0.00 | 0.00 | 0.00 | 97 | 1015.5 |
| 20260905121544 | 73 | 197 | 0.9 | 1.7 | 0.00 | 0.00 | 0.00 | 97 | 1015.5 |
| 20260905120043 | 73 | 196 | 0.9 | 1.7 | 0.00 | 0.00 | 0.00 | 97 | 1015.1 |
| 20260905114545 | 72 | 194 | 0.9 | 2.6 | 0.00 | 0.00 | 0.00 | 96 | 1015.0 |
| 20260905113044 | 72 | 0 | 0.0 | 0.0 | 0.00 | 0.00 | 0.00 | 96 | 1015.0 |
| 20260905111557 | 72 | 0 | 0.0 | 1.7 | 0.00 | 0.00 | 0.00 | 96 | 1014.6 |
| 20260905110041 | 72 | 0 | 0.0 | 0.0 | 0.00 | 0.00 | 0.00 | 96 | 1014.4 |
| 20260905104547 | 72 | 0 | 0.0 | 0.0 | 0.00 | 0.00 | 0.00 | 96 | 1014.3 |
| 20260905103045 | 72 | 0 | 0.0 | 0.0 | 0.00 | 0.00 | 0.00 | 96 | 1014.1 |
| 20260905101546 | 72 | 0 | 0.0 | 0.9 | 0.00 | 0.00 | 0.00 | 96 | 1014.2 |
| 20260905100042 | 72 | 0 | 0.0 | 0.9 | 0.00 | 0.00 | 0.00 | 96 | 1014.1 |
| 20260905094549 | 72 | 194 | 0.0 | 1.7 | 0.00 | 0.00 | 0.00 | 95 | 1014.0 |
| 20260905093044 | 73 | 194 | 0.0 | 0.9 | 0.00 | 0.00 | 0.00 | 96 | 1014.2 |
| 20260905091541 | 73 | 194 | 0.9 | 1.7 | 0.00 | 0.00 | 0.00 | 96 | 1014.2 |
| 20260905090047 | 73 | 194 | 0.9 | 1.7 | 0.00 | 0.00 | 0.00 | 95 | 1014.3 |
| 20260905084550 | 73 | 0 | 0.0 | 1.7 | 0.00 | 0.00 | 0.00 | 95 | 1014.2 |